(356) Liguria
ephemeris date magn radius delta ra dec elong phase
Today4 Sep 202614.33.037 AU3.867 AU12h36m-07°01'30.1°9.6°
Opposition21 May 202713.23.390 AU2.390 AU15h40m-30°30'169.4°3.2°
(356) Liguria - 2026-09-04
astro.vanbuitenen.nl


 
-1 year
-1 month
-1 day
Now
+1 day
+1 month
+1 year

The interactive orbit chart above shows the body's path through the solar system and its position at the given date. Green and blue lines are shown perpendicular to the ecliptic plane: Green if the path is above the ecliptic plane, blue if it is below. (Left-click and drag to rotate the view; Right-click and drag to move the view; Use scroll wheel to zoom in our out.)

The orbital elements of Liguria are:

            e (Eccentricity)                : 0.2420203
            a (Semimajor axis)              : 2.7537605
            i (Inclination)                 : 8.20731
            Ω (Longitude of ascending node) : 354.44459
            ω (Argument of perihelion)      : 79.27114
            M (Mean anomaly)                : 83.78899
            Epoch                           : 2026 Jun 09

            L (Longitude of perihelion)     : 73.60732
            B (Latitude of perihelion)      : 8.06288
            P (Orbital period in years)     : 4.57            
        

The light curve chart below shows the estimated development of the minor planet's magnitude.


The all-sky chart below shows the path of the minor planet over the same period as the light curve. The current position is marked yellow.





The following chart shows the path of the minor planet in the next few days. The field of view is optimized for (~10x50) binoculars and finderscopes.




Ephemerides:
Date       Time       RA (2000)    DEC (2000)    delta   radius  elong  phase   PA    magn
2026-09-04 00:00 UT   12 36 15.6   -07 01 12     3.867    3.037   30.1    9.6   118   14.3 
2026-09-04 01:08 UT   12 36 19.3   -07 01 38     3.867    3.037   30.1    9.6   118   14.3 
2026-09-05 00:00 UT   12 37 34.0   -07 10 20     3.876    3.039   29.5    9.4   118   14.3 
2026-09-06 00:00 UT   12 38 52.5   -07 19 29     3.884    3.041   28.9    9.2   118   14.3 
2026-09-07 00:00 UT   12 40 11.2   -07 28 38     3.893    3.043   28.3    9.0   118   14.3 
2026-09-08 00:00 UT   12 41 30.0   -07 37 47     3.901    3.045   27.7    8.8   119   14.3 
2026-09-09 00:00 UT   12 42 48.9   -07 46 57     3.909    3.047   27.1    8.6   119   14.3 
2026-09-10 00:00 UT   12 44 08.0   -07 56 06     3.917    3.049   26.4    8.5   119   14.3 
2026-09-11 00:00 UT   12 45 27.2   -08 05 15     3.925    3.051   25.8    8.3   119   14.3 
2026-09-12 00:00 UT   12 46 46.5   -08 14 25     3.933    3.053   25.2    8.1   119   14.3 
2026-09-13 00:00 UT   12 48 06.0   -08 23 34     3.941    3.055   24.6    7.9   119   14.3 
2026-09-14 00:00 UT   12 49 25.5   -08 32 44     3.948    3.057   24.0    7.7   120   14.3 
2026-09-15 00:00 UT   12 50 45.2   -08 41 53     3.956    3.059   23.4    7.5   120   14.3 
2026-09-16 00:00 UT   12 52 05.0   -08 51 02     3.963    3.061   22.8    7.3   120   14.3 
2026-09-17 00:00 UT   12 53 24.9   -09 00 10     3.970    3.063   22.2    7.1   120   14.3 
2026-09-18 00:00 UT   12 54 44.9   -09 09 19     3.977    3.065   21.6    6.9   120   14.3 
2026-09-19 00:00 UT   12 56 05.0   -09 18 27     3.984    3.067   21.0    6.7   121   14.3 
2026-09-20 00:00 UT   12 57 25.2   -09 27 35     3.990    3.069   20.4    6.5   121   14.3 
2026-09-21 00:00 UT   12 58 45.5   -09 36 43     3.997    3.071   19.8    6.4   121   14.3 
2026-09-22 00:00 UT   13 00 05.9   -09 45 50     4.003    3.073   19.2    6.2   122   14.3 
2026-09-23 00:00 UT   13 01 26.4   -09 54 57     4.009    3.075   18.6    6.0   122   14.3 
2026-09-24 00:00 UT   13 02 46.9   -10 04 03     4.015    3.077   18.0    5.8   122   14.3 
2026-09-25 00:00 UT   13 04 07.6   -10 13 09     4.021    3.079   17.4    5.6   123   14.3 
2026-09-26 00:00 UT   13 05 28.4   -10 22 14     4.027    3.081   16.8    5.4   123   14.3 
2026-09-27 00:00 UT   13 06 49.2   -10 31 19     4.033    3.083   16.2    5.2   123   14.3 


    Terminology:
            
    delta:  distance between minor planet and earth in AU
    radius: distance between minor planet and sun in AU
    magn:   magnitude (brightness) estimate    
    ra:     right ascension in hours (24h = 360deg)
    dec:    declination in degrees
    elong:  elongation in degrees (angle sun-earth-minor planet)    
    phase:  phase angle in degrees (angle sun-minor planet-earth)        
    AU:     Astronomical Unit (mean distance between earth and sun: 149597870.7 km
    

Orbital elements provided by the MPC (Minor Planet Center).
Calculations by a modified version of AAPlus, a C# implementation of the AA+ project by PJ Naughter from the algorithms presented in the book "Astronomical Algorithms" by Jean Meeus.
NGC2000 dso catalog and star labels from VizieR as provided by the Strasbourg astronomical Data Center.
Tycho2 catalog from the ESO archive.